| time (UTC) | temp C | wind direction | speed KPH | gust KPH | rain 1hr cm | rain 24hr cm | rain mn cm | humidity % | barometer mb |
| 20260903224546 | 39 | 123 | 1.6 | 14.5 | 0.00 | 0.00 | 0.00 | 27 | 1004.7 |
| 20260903224046 | 39 | 173 | 3.2 | 14.5 | 0.00 | 0.00 | 0.00 | 27 | 1004.8 |
| 20260903223545 | 39 | 119 | 3.2 | 12.9 | 0.00 | 0.00 | 0.00 | 27 | 1004.8 |
| 20260903223055 | 39 | 207 | 1.6 | 8.0 | 0.00 | 0.00 | 0.00 | 28 | 1004.8 |
| 20260903222544 | 38 | 178 | 3.2 | 8.0 | 0.00 | 0.00 | 0.00 | 27 | 1004.9 |
| 20260903222041 | 38 | 215 | 1.6 | 8.0 | 0.00 | 0.00 | 0.00 | 28 | 1005.0 |
| 20260903221542 | 37 | 315 | 0.0 | 11.3 | 0.00 | 0.00 | 0.00 | 30 | 1005.2 |
| 20260903221042 | 37 | 310 | 3.2 | 11.3 | 0.00 | 0.00 | 0.00 | 30 | 1005.2 |
| 20260903220540 | 37 | 303 | 3.2 | 9.7 | 0.00 | 0.00 | 0.00 | 30 | 1005.4 |
| 20260903220039 | 38 | 224 | 3.2 | 9.7 | 0.00 | 0.00 | 0.00 | 29 | 1005.4 |
| 20260903215542 | 38 | 190 | 1.6 | 9.7 | 0.00 | 0.00 | 0.00 | 29 | 1005.5 |
| 20260903215037 | 38 | 28 | 1.6 | 9.7 | 0.00 | 0.00 | 0.00 | 28 | 1005.7 |
| 20260903214541 | 38 | 277 | 3.2 | 8.0 | 0.00 | 0.00 | 0.00 | 28 | 1005.6 |
| 20260903214037 | 38 | 278 | 3.2 | 8.0 | 0.00 | 0.00 | 0.00 | 28 | 1005.8 |
| 20260903213536 | 38 | 80 | 1.6 | 12.9 | 0.00 | 0.00 | 0.00 | 28 | 1005.8 |
| 20260903213042 | 38 | 178 | 3.2 | 12.9 | 0.00 | 0.00 | 0.00 | 28 | 1005.9 |
| 20260903212534 | 38 | 180 | 1.6 | 9.7 | 0.00 | 0.00 | 0.00 | 28 | 1006.1 |
| 20260903212034 | 38 | 200 | 1.6 | 17.7 | 0.00 | 0.00 | 0.00 | 29 | 1006.1 |
| 20260903211539 | 38 | 224 | 4.8 | 17.7 | 0.00 | 0.00 | 0.00 | 28 | 1006.2 |
| 20260903211033 | 38 | 97 | 4.8 | 9.7 | 0.00 | 0.00 | 0.00 | 28 | 1006.2 |
| 20260903210532 | 38 | 209 | 3.2 | 9.7 | 0.00 | 0.00 | 0.00 | 29 | 1006.3 |
| 20260903210031 | 38 | 234 | 3.2 | 11.3 | 0.00 | 0.00 | 0.00 | 29 | 1006.4 |
| 20260903205532 | 37 | 192 | 3.2 | 16.1 | 0.00 | 0.00 | 0.00 | 30 | 1006.5 |
| 20260903205028 | 38 | 88 | 4.8 | 16.1 | 0.00 | 0.00 | 0.00 | 29 | 1006.6 |
| 20260903204528 | 37 | 135 | 1.6 | 14.5 | 0.00 | 0.00 | 0.00 | 30 | 1006.6 |
| 20260903204031 | 37 | 213 | 3.2 | 14.5 | 0.00 | 0.00 | 0.00 | 30 | 1006.7 |
| 20260903203527 | 37 | 143 | 3.2 | 9.7 | 0.00 | 0.00 | 0.00 | 31 | 1006.8 |
| 20260903203031 | 37 | 246 | 3.2 | 9.7 | 0.00 | 0.00 | 0.00 | 31 | 1006.8 |
| 20260903202525 | 37 | 115 | 1.6 | 9.7 | 0.00 | 0.00 | 0.00 | 30 | 1006.9 |
| 20260903202025 | 38 | 210 | 3.2 | 6.4 | 0.00 | 0.00 | 0.00 | 30 | 1007.1 |
| 20260903201525 | 38 | 199 | 0.0 | 12.9 | 0.00 | 0.00 | 0.00 | 30 | 1007.1 |
| 20260903201024 | 37 | 175 | 3.2 | 12.9 | 0.00 | 0.00 | 0.00 | 30 | 1007.2 |
| 20260903200523 | 37 | 207 | 1.6 | 6.4 | 0.00 | 0.00 | 0.00 | 31 | 1007.2 |
| 20260903200021 | 37 | 259 | 1.6 | 8.0 | 0.00 | 0.00 | 0.00 | 32 | 1007.3 |
| 20260903195521 | 37 | 174 | 3.2 | 9.7 | 0.00 | 0.00 | 0.00 | 32 | 1007.4 |
| 20260903195020 | 36 | 228 | 0.0 | 9.7 | 0.00 | 0.00 | 0.00 | 33 | 1007.5 |
| 20260903194519 | 37 | 119 | 3.2 | 6.4 | 0.00 | 0.00 | 0.00 | 31 | 1007.5 |
| 20260903194017 | 37 | 155 | 1.6 | 6.4 | 0.00 | 0.00 | 0.00 | 32 | 1007.6 |
| 20260903193516 | 36 | 148 | 0.0 | 12.9 | 0.00 | 0.00 | 0.00 | 34 | 1007.6 |
| 20260903193016 | 36 | 154 | 3.2 | 12.9 | 0.00 | 0.00 | 0.00 | 33 | 1007.7 |
| 20260903192514 | 36 | 136 | 3.2 | 16.1 | 0.00 | 0.00 | 0.00 | 33 | 1007.8 |
| 20260903192012 | 36 | 139 | 6.4 | 16.1 | 0.00 | 0.00 | 0.00 | 32 | 1007.9 |
| 20260903191523 | 36 | 192 | 3.2 | 12.9 | 0.00 | 0.00 | 0.00 | 33 | 1008.1 |
| 20260903191012 | 36 | 215 | 0.0 | 12.9 | 0.00 | 0.00 | 0.00 | 33 | 1008.1 |
| 20260903190511 | 36 | 157 | 4.8 | 11.3 | 0.00 | 0.00 | 0.00 | 32 | 1008.2 |
| 20260903190012 | 36 | 171 | 3.2 | 11.3 | 0.00 | 0.00 | 0.00 | 33 | 1008.3 |
| 20260903185509 | 36 | 120 | 1.6 | 8.0 | 0.00 | 0.00 | 0.00 | 33 | 1008.4 |
| 20260903185009 | 36 | 104 | 1.6 | 8.0 | 0.00 | 0.00 | 0.00 | 33 | 1008.5 |
| 20260903184509 | 36 | 205 | 0.0 | 9.7 | 0.00 | 0.00 | 0.00 | 35 | 1008.6 |
| 20260903184009 | 36 | 279 | 3.2 | 9.7 | 0.00 | 0.00 | 0.00 | 34 | 1008.6 |
| 20260903183507 | 36 | 221 | 1.6 | 16.1 | 0.00 | 0.00 | 0.00 | 35 | 1008.7 |
| 20260903183007 | 36 | 169 | 3.2 | 16.1 | 0.00 | 0.00 | 0.00 | 35 | 1008.8 |
| 20260903182505 | 36 | 158 | 3.2 | 9.7 | 0.00 | 0.00 | 0.00 | 34 | 1008.8 |
| 20260903182005 | 35 | 112 | 3.2 | 9.7 | 0.00 | 0.00 | 0.00 | 33 | 1008.9 |
| 20260903181503 | 35 | 85 | 1.6 | 8.0 | 0.00 | 0.00 | 0.00 | 34 | 1008.9 |
| 20260903181004 | 35 | 271 | 1.6 | 8.0 | 0.00 | 0.00 | 0.00 | 35 | 1009.0 |
| 20260903180501 | 35 | 186 | 1.6 | 9.7 | 0.00 | 0.00 | 0.00 | 37 | 1009.2 |
| 20260903180100 | 35 | 200 | 1.6 | 9.7 | 0.00 | 0.00 | 0.00 | 37 | 1009.2 |
| 20260903175558 | 35 | 201 | 3.2 | 8.0 | 0.00 | 0.00 | 0.00 | 38 | 1009.3 |
| 20260903175057 | 35 | 192 | 3.2 | 9.7 | 0.00 | 0.00 | 0.00 | 36 | 1009.4 |
| 20260903174556 | 35 | 169 | 1.6 | 9.7 | 0.00 | 0.00 | 0.00 | 38 | 1009.3 |
| 20260903174055 | 35 | 225 | 1.6 | 6.4 | 0.00 | 0.00 | 0.00 | 38 | 1009.4 |
| 20260903173553 | 34 | 218 | 1.6 | 4.8 | 0.00 | 0.00 | 0.00 | 39 | 1009.4 |
| 20260903173055 | 34 | 192 | 0.0 | 8.0 | 0.00 | 0.00 | 0.00 | 41 | 1009.5 |
| 20260903172551 | 34 | 274 | 1.6 | 8.0 | 0.00 | 0.00 | 0.00 | 41 | 1009.5 |
| 20260903172051 | 34 | 70 | 0.0 | 8.0 | 0.00 | 0.00 | 0.00 | 42 | 1009.5 |
| 20260903171559 | 34 | 172 | 1.6 | 8.0 | 0.00 | 0.00 | 0.00 | 42 | 1009.4 |
| 20260903171048 | 33 | 206 | 3.2 | 8.0 | 0.00 | 0.00 | 0.00 | 42 | 1009.4 |
| 20260903170548 | 33 | 280 | 1.6 | 8.0 | 0.00 | 0.00 | 0.00 | 44 | 1009.4 |
| 20260903170046 | 33 | 222 | 0.0 | 6.4 | 0.00 | 0.00 | 0.00 | 44 | 1009.4 |
| 20260903165545 | 33 | 159 | 1.6 | 8.0 | 0.00 | 0.00 | 0.00 | 44 | 1009.5 |
| 20260903165043 | 33 | 220 | 1.6 | 11.3 | 0.00 | 0.00 | 0.00 | 44 | 1009.6 |
| 20260903164542 | 33 | 159 | 3.2 | 11.3 | 0.00 | 0.00 | 0.00 | 45 | 1009.5 |
| 20260903164041 | 33 | 163 | 1.6 | 11.3 | 0.00 | 0.00 | 0.00 | 45 | 1009.5 |
| 20260903163539 | 32 | 189 | 1.6 | 11.3 | 0.00 | 0.00 | 0.00 | 46 | 1009.6 |
| 20260903163041 | 32 | 156 | 0.0 | 6.4 | 0.00 | 0.00 | 0.00 | 47 | 1009.6 |
| 20260903162538 | 32 | 248 | 1.6 | 8.0 | 0.00 | 0.00 | 0.00 | 48 | 1009.6 |
| 20260903162035 | 32 | 187 | 1.6 | 6.4 | 0.00 | 0.00 | 0.00 | 48 | 1009.6 |
| 20260903161535 | 32 | 204 | 3.2 | 6.4 | 0.00 | 0.00 | 0.00 | 49 | 1009.6 |
| 20260903161034 | 32 | 138 | 1.6 | 6.4 | 0.00 | 0.00 | 0.00 | 50 | 1009.6 |
| 20260903160532 | 32 | 164 | 0.0 | 6.4 | 0.00 | 0.00 | 0.00 | 50 | 1009.7 |
| 20260903160031 | 32 | 151 | 1.6 | 6.4 | 0.00 | 0.00 | 0.00 | 51 | 1009.7 |
| 20260903155531 | 31 | 184 | 0.0 | 6.4 | 0.00 | 0.00 | 0.00 | 51 | 1009.6 |
| 20260903155028 | 31 | 155 | 1.6 | 6.4 | 0.00 | 0.00 | 0.00 | 51 | 1009.6 |
| 20260903154527 | 31 | 186 | 1.6 | 6.4 | 0.00 | 0.00 | 0.00 | 51 | 1009.6 |
| 20260903154025 | 31 | 132 | 0.0 | 8.0 | 0.00 | 0.00 | 0.00 | 52 | 1009.6 |
| 20260903153524 | 31 | 112 | 1.6 | 6.4 | 0.00 | 0.00 | 0.00 | 53 | 1009.7 |
| 20260903153023 | 31 | 181 | 1.6 | 6.4 | 0.00 | 0.00 | 0.00 | 53 | 1009.7 |
| 20260903152522 | 30 | 260 | 0.0 | 4.8 | 0.00 | 0.00 | 0.00 | 54 | 1009.7 |
| 20260903152020 | 30 | 188 | 0.0 | 4.8 | 0.00 | 0.00 | 0.00 | 55 | 1009.7 |
| 20260903151521 | 30 | 181 | 0.0 | 4.8 | 0.00 | 0.00 | 0.00 | 56 | 1009.6 |
| 20260903151018 | 30 | 142 | 0.0 | 3.2 | 0.00 | 0.00 | 0.00 | 56 | 1009.7 |
| 20260903150516 | 30 | 279 | 0.0 | 3.2 | 0.00 | 0.00 | 0.00 | 57 | 1009.7 |
| 20260903150016 | 30 | 208 | 0.0 | 3.2 | 0.00 | 0.00 | 0.00 | 57 | 1009.7 |
| 20260903145514 | 29 | 178 | 0.0 | 3.2 | 0.00 | 0.00 | 0.00 | 58 | 1009.7 |
| 20260903145013 | 29 | 177 | 0.0 | 3.2 | 0.00 | 0.00 | 0.00 | 59 | 1009.7 |
| 20260903144512 | 28 | 169 | 0.0 | 3.2 | 0.00 | 0.00 | 0.00 | 59 | 1009.7 |
| 20260903144010 | 28 | 195 | 0.0 | 4.8 | 0.00 | 0.00 | 0.00 | 60 | 1009.7 |
| 20260903143508 | 28 | 242 | 0.0 | 4.8 | 0.00 | 0.00 | 0.00 | 60 | 1009.7 |
| 20260903143008 | 28 | 228 | 0.0 | 4.8 | 0.00 | 0.00 | 0.00 | 59 | 1009.6 |
| 20260903142507 | 28 | 200 | 0.0 | 6.4 | 0.00 | 0.00 | 0.00 | 59 | 1009.6 |
| 20260903142005 | 28 | 267 | 1.6 | 6.4 | 0.00 | 0.00 | 0.00 | 58 | 1009.6 |
| 20260903141510 | 28 | 267 | 0.0 | 6.4 | 0.00 | 0.00 | 0.00 | 58 | 1009.4 |
| 20260903141004 | 28 | 309 | 0.0 | 6.4 | 0.00 | 0.00 | 0.00 | 58 | 1009.3 |
| 20260903140503 | 28 | 280 | 0.0 | 6.4 | 0.00 | 0.00 | 0.00 | 58 | 1009.3 |
| 20260903140009 | 28 | 267 | 0.0 | 3.2 | 0.00 | 0.00 | 0.00 | 56 | 1009.3 |
| 20260903135503 | 28 | 213 | 0.0 | 3.2 | 0.00 | 0.00 | 0.00 | 57 | 1009.2 |
| 20260903135002 | 28 | 233 | 0.0 | 8.0 | 0.00 | 0.00 | 0.00 | 56 | 1009.1 |
| 20260903134610 | 28 | 281 | 0.0 | 8.0 | 0.00 | 0.00 | 0.00 | 56 | 1009.0 |
| 20260903134058 | 28 | 292 | 0.0 | 6.4 | 0.00 | 0.00 | 0.00 | 56 | 1008.9 |
| 20260903133558 | 28 | 233 | 0.0 | 4.8 | 0.00 | 0.00 | 0.00 | 55 | 1008.8 |
| 20260903133108 | 28 | 263 | 0.0 | 3.2 | 0.00 | 0.00 | 0.00 | 55 | 1008.8 |
| 20260903132558 | 28 | 272 | 0.0 | 8.0 | 0.00 | 0.00 | 0.00 | 55 | 1008.7 |
| 20260903132054 | 28 | 300 | 1.6 | 8.0 | 0.00 | 0.00 | 0.00 | 54 | 1008.7 |
| 20260903131553 | 28 | 201 | 1.6 | 8.0 | 0.00 | 0.00 | 0.00 | 53 | 1008.6 |
| 20260903131056 | 28 | 288 | 0.0 | 8.0 | 0.00 | 0.00 | 0.00 | 52 | 1008.5 |
| 20260903130552 | 28 | 247 | 0.0 | 3.2 | 0.00 | 0.00 | 0.00 | 52 | 1008.5 |
| 20260903130122 | 28 | 265 | 0.0 | 3.2 | 0.00 | 0.00 | 0.00 | 52 | 1008.4 |
| 20260903125552 | 28 | 262 | 0.0 | 4.8 | 0.00 | 0.00 | 0.00 | 52 | 1008.3 |
| 20260903125051 | 28 | 282 | 0.0 | 8.0 | 0.00 | 0.00 | 0.00 | 53 | 1008.3 |
| 20260903124558 | 28 | 280 | 1.6 | 8.0 | 0.00 | 0.00 | 0.00 | 53 | 1008.2 |
| 20260903124050 | 28 | 304 | 1.6 | 11.3 | 0.00 | 0.00 | 0.00 | 53 | 1008.3 |
| 20260903123554 | 28 | 268 | 1.6 | 11.3 | 0.00 | 0.00 | 0.00 | 54 | 1008.3 |
| 20260903123051 | 28 | 298 | 1.6 | 12.9 | 0.00 | 0.00 | 0.00 | 54 | 1008.2 |
| 20260903122549 | 28 | 273 | 4.8 | 12.9 | 0.00 | 0.00 | 0.00 | 54 | 1008.1 |
| 20260903122049 | 28 | 276 | 3.2 | 9.7 | 0.00 | 0.00 | 0.00 | 54 | 1008.1 |
| 20260903121549 | 28 | 269 | 3.2 | 9.7 | 0.00 | 0.00 | 0.00 | 54 | 1008.1 |
| 20260903121048 | 28 | 263 | 4.8 | 12.9 | 0.00 | 0.00 | 0.00 | 55 | 1008.1 |
| 20260903120547 | 28 | 284 | 3.2 | 14.5 | 0.00 | 0.00 | 0.00 | 53 | 1008.1 |
| 20260903120050 | 28 | 259 | 1.6 | 14.5 | 0.00 | 0.00 | 0.00 | 52 | 1008.1 |
| 20260903115549 | 28 | 302 | 4.8 | 14.5 | 0.00 | 0.00 | 0.00 | 50 | 1008.1 |
| 20260903115047 | 28 | 269 | 3.2 | 9.7 | 0.00 | 0.00 | 0.00 | 48 | 1008.1 |
| 20260903114547 | 28 | 311 | 3.2 | 14.5 | 0.00 | 0.00 | 0.00 | 50 | 1008.1 |
| 20260903114048 | 28 | 248 | 4.8 | 14.5 | 0.00 | 0.00 | 0.00 | 50 | 1008.1 |
| 20260903113546 | 28 | 288 | 4.8 | 11.3 | 0.00 | 0.00 | 0.00 | 53 | 1008.1 |
| 20260903113046 | 28 | 280 | 3.2 | 11.3 | 0.00 | 0.00 | 0.00 | 54 | 1008.1 |
| 20260903112546 | 28 | 302 | 0.0 | 8.0 | 0.00 | 0.00 | 0.00 | 54 | 1008.1 |
| 20260903112044 | 28 | 269 | 3.2 | 9.7 | 0.00 | 0.00 | 0.00 | 54 | 1008.1 |
| 20260903111544 | 28 | 259 | 3.2 | 9.7 | 0.00 | 0.00 | 0.00 | 54 | 1008.2 |
| 20260903111044 | 28 | 293 | 3.2 | 9.7 | 0.00 | 0.00 | 0.00 | 54 | 1008.1 |
| 20260903110547 | 28 | 268 | 1.6 | 9.7 | 0.00 | 0.00 | 0.00 | 54 | 1008.1 |
| 20260903110045 | 28 | 259 | 0.0 | 6.4 | 0.00 | 0.00 | 0.00 | 53 | 1008.1 |
| 20260903105545 | 29 | 311 | 0.0 | 6.4 | 0.00 | 0.00 | 0.00 | 53 | 1008.1 |
| 20260903105042 | 29 | 204 | 0.0 | 6.4 | 0.00 | 0.00 | 0.00 | 52 | 1008.1 |
| 20260903104541 | 29 | 225 | 0.0 | 4.8 | 0.00 | 0.00 | 0.00 | 51 | 1008.2 |
| 20260903104039 | 29 | 218 | 0.0 | 6.4 | 0.00 | 0.00 | 0.00 | 50 | 1008.2 |
| 20260903103539 | 29 | 232 | 0.0 | 6.4 | 0.00 | 0.00 | 0.00 | 49 | 1008.2 |
| 20260903103039 | 29 | 217 | 0.0 | 6.4 | 0.00 | 0.00 | 0.00 | 47 | 1008.3 |
| 20260903102537 | 30 | 221 | 0.0 | 4.8 | 0.00 | 0.00 | 0.00 | 46 | 1008.3 |
| 20260903102036 | 30 | 217 | 0.0 | 6.4 | 0.00 | 0.00 | 0.00 | 45 | 1008.3 |
| 20260903101536 | 30 | 194 | 1.6 | 8.0 | 0.00 | 0.00 | 0.00 | 44 | 1008.3 |
| 20260903101035 | 30 | 232 | 1.6 | 6.4 | 0.00 | 0.00 | 0.00 | 42 | 1008.3 |
| 20260903100536 | 30 | 216 | 0.0 | 6.4 | 0.00 | 0.00 | 0.00 | 41 | 1008.3 |
| 20260903100038 | 30 | 261 | 1.6 | 8.0 | 0.00 | 0.00 | 0.00 | 41 | 1008.3 |
| 20260903095533 | 30 | 194 | 1.6 | 8.0 | 0.00 | 0.00 | 0.00 | 40 | 1008.3 |
| 20260903095035 | 30 | 243 | 1.6 | 8.0 | 0.00 | 0.00 | 0.00 | 40 | 1008.3 |
| 20260903094539 | 30 | 275 | 1.6 | 8.0 | 0.00 | 0.00 | 0.00 | 40 | 1008.3 |
| 20260903094032 | 30 | 192 | 1.6 | 8.0 | 0.00 | 0.00 | 0.00 | 39 | 1008.3 |
| 20260903093532 | 30 | 290 | 1.6 | 8.0 | 0.00 | 0.00 | 0.00 | 40 | 1008.3 |
| 20260903093033 | 30 | 147 | 1.6 | 8.0 | 0.00 | 0.00 | 0.00 | 40 | 1008.3 |
| 20260903092532 | 31 | 275 | 1.6 | 12.9 | 0.00 | 0.00 | 0.00 | 40 | 1008.3 |
| 20260903092032 | 31 | 246 | 4.8 | 12.9 | 0.00 | 0.00 | 0.00 | 41 | 1008.3 |
| 20260903091534 | 31 | 277 | 3.2 | 17.7 | 0.00 | 0.00 | 0.00 | 40 | 1008.3 |
| 20260903091031 | 31 | 257 | 6.4 | 17.7 | 0.00 | 0.00 | 0.00 | 40 | 1008.3 |
| 20260903090532 | 31 | 307 | 6.4 | 14.5 | 0.00 | 0.00 | 0.00 | 40 | 1008.3 |
| 20260903090037 | 30 | 273 | 3.2 | 11.3 | 0.00 | 0.00 | 0.00 | 38 | 1008.2 |
| 20260903085529 | 30 | 267 | 3.2 | 6.4 | 0.00 | 0.00 | 0.00 | 36 | 1008.3 |
| 20260903085028 | 30 | 210 | 0.0 | 8.0 | 0.00 | 0.00 | 0.00 | 33 | 1008.4 |
| 20260903084531 | 30 | 278 | 0.0 | 8.0 | 0.00 | 0.00 | 0.00 | 30 | 1008.3 |
| 20260903084027 | 30 | 254 | 0.0 | 3.2 | 0.00 | 0.00 | 0.00 | 27 | 1008.3 |
| 20260903083529 | 30 | 257 | 0.0 | 4.8 | 0.00 | 0.00 | 0.00 | 26 | 1008.3 |
| 20260903083029 | 30 | 222 | 0.0 | 6.4 | 0.00 | 0.00 | 0.00 | 25 | 1008.3 |
| 20260903082526 | 30 | 240 | 1.6 | 6.4 | 0.00 | 0.00 | 0.00 | 25 | 1008.3 |
| 20260903082025 | 30 | 195 | 0.0 | 3.2 | 0.00 | 0.00 | 0.00 | 25 | 1008.3 |
| 20260903081525 | 30 | 240 | 0.0 | 3.2 | 0.00 | 0.00 | 0.00 | 26 | 1008.3 |
| 20260903081027 | 30 | 240 | 0.0 | 3.2 | 0.00 | 0.00 | 0.00 | 25 | 1008.3 |
| 20260903080523 | 31 | 215 | 0.0 | 3.2 | 0.00 | 0.00 | 0.00 | 26 | 1008.3 |
| 20260903080022 | 31 | 183 | 0.0 | 3.2 | 0.00 | 0.00 | 0.00 | 25 | 1008.3 |
| 20260903075522 | 31 | 185 | 0.0 | 3.2 | 0.00 | 0.00 | 0.00 | 25 | 1008.3 |
| 20260903075019 | 31 | 191 | 0.0 | 3.2 | 0.00 | 0.00 | 0.00 | 25 | 1008.3 |
| 20260903074520 | 31 | 150 | 0.0 | 3.2 | 0.00 | 0.00 | 0.00 | 24 | 1008.3 |
| 20260903074018 | 31 | 250 | 0.0 | 3.2 | 0.00 | 0.00 | 0.00 | 23 | 1008.1 |
| 20260903073517 | 32 | 217 | 0.0 | 3.2 | 0.00 | 0.00 | 0.00 | 23 | 1008.0 |
| 20260903073019 | 32 | 272 | 0.0 | 4.8 | 0.00 | 0.00 | 0.00 | 23 | 1008.0 |
| 20260903072515 | 32 | 271 | 0.0 | 4.8 | 0.00 | 0.00 | 0.00 | 23 | 1008.0 |
| 20260903072015 | 32 | 261 | 0.0 | 3.2 | 0.00 | 0.00 | 0.00 | 24 | 1007.9 |
| 20260903071514 | 32 | 259 | 1.6 | 3.2 | 0.00 | 0.00 | 0.00 | 23 | 1007.9 |
| 20260903071013 | 32 | 237 | 0.0 | 3.2 | 0.00 | 0.00 | 0.00 | 23 | 1007.9 |
| 20260903070512 | 32 | 217 | 0.0 | 3.2 | 0.00 | 0.00 | 0.00 | 23 | 1008.0 |
| 20260903070011 | 32 | 217 | 0.0 | 3.2 | 0.00 | 0.00 | 0.00 | 22 | 1007.9 |
| 20260903065511 | 32 | 217 | 0.0 | 3.2 | 0.00 | 0.00 | 0.00 | 22 | 1007.9 |
| 20260903065010 | 32 | 217 | 0.0 | 4.8 | 0.00 | 0.00 | 0.00 | 22 | 1007.9 |
| 20260903064510 | 32 | 213 | 0.0 | 8.0 | 0.00 | 0.00 | 0.00 | 22 | 1007.8 |
| 20260903064010 | 32 | 238 | 1.6 | 8.0 | 0.00 | 0.00 | 0.00 | 23 | 1007.8 |
| 20260903063511 | 32 | 247 | 3.2 | 8.0 | 0.00 | 0.00 | 0.00 | 23 | 1007.8 |
| 20260903063013 | 32 | 294 | 1.6 | 8.0 | 0.00 | 0.00 | 0.00 | 24 | 1007.8 |
| 20260903062509 | 32 | 296 | 3.2 | 9.7 | 0.00 | 0.00 | 0.00 | 23 | 1007.8 |
| 20260903062009 | 32 | 300 | 4.8 | 9.7 | 0.00 | 0.00 | 0.00 | 23 | 1007.8 |
| 20260903061510 | 32 | 345 | 6.4 | 11.3 | 0.00 | 0.00 | 0.00 | 22 | 1007.8 |
| 20260903061012 | 32 | 318 | 4.8 | 14.5 | 0.00 | 0.00 | 0.00 | 22 | 1007.7 |
| 20260903060509 | 32 | 295 | 6.4 | 14.5 | 0.00 | 0.00 | 0.00 | 22 | 1007.7 |
| 20260903060029 | 32 | 322 | 8.0 | 14.5 | 0.00 | 0.00 | 0.00 | 22 | 1007.6 |
| 20260903055511 | 32 | 319 | 8.0 | 12.9 | 0.00 | 0.00 | 0.00 | 23 | 1007.6 |
| 20260903055008 | 32 | 318 | 6.4 | 14.5 | 0.00 | 0.00 | 0.00 | 23 | 1007.7 |
| 20260903054508 | 32 | 298 | 6.4 | 12.9 | 0.00 | 0.00 | 0.00 | 23 | 1007.7 |
| 20260903054008 | 32 | 315 | 4.8 | 14.5 | 0.00 | 0.00 | 0.00 | 22 | 1007.6 |
| 20260903053509 | 33 | 291 | 8.0 | 14.5 | 0.00 | 0.00 | 0.00 | 22 | 1007.7 |
| 20260903053008 | 33 | 300 | 8.0 | 14.5 | 0.00 | 0.00 | 0.00 | 22 | 1007.7 |
| 20260903052510 | 33 | 319 | 6.4 | 14.5 | 0.00 | 0.00 | 0.00 | 22 | 1007.8 |
| 20260903052008 | 33 | 304 | 9.7 | 14.5 | 0.00 | 0.00 | 0.00 | 21 | 1007.7 |
| 20260903051507 | 33 | 308 | 8.0 | 16.1 | 0.00 | 0.00 | 0.00 | 21 | 1007.8 |
| 20260903051008 | 33 | 295 | 9.7 | 16.1 | 0.00 | 0.00 | 0.00 | 20 | 1007.8 |
| 20260903050507 | 33 | 302 | 9.7 | 17.7 | 0.00 | 0.00 | 0.00 | 20 | 1007.8 |
| 20260903050007 | 33 | 288 | 9.7 | 17.7 | 0.00 | 0.00 | 0.00 | 20 | 1007.7 |
| 20260903045507 | 33 | 316 | 9.7 | 16.1 | 0.00 | 0.00 | 0.00 | 20 | 1007.7 |
| 20260903045006 | 33 | 306 | 9.7 | 17.7 | 0.00 | 0.00 | 0.00 | 20 | 1007.7 |
| 20260903044507 | 33 | 324 | 9.7 | 17.7 | 0.00 | 0.00 | 0.00 | 20 | 1007.7 |
| 20260903044008 | 33 | 287 | 9.7 | 17.7 | 0.00 | 0.00 | 0.00 | 20 | 1007.8 |
| 20260903043507 | 33 | 318 | 8.0 | 16.1 | 0.00 | 0.00 | 0.00 | 21 | 1007.8 |
| 20260903043015 | 33 | 302 | 6.4 | 16.1 | 0.00 | 0.00 | 0.00 | 21 | 1007.8 |
| 20260903042507 | 33 | 336 | 6.4 | 19.3 | 0.00 | 0.00 | 0.00 | 20 | 1007.8 |
| 20260903042005 | 33 | 286 | 8.0 | 19.3 | 0.00 | 0.00 | 0.00 | 19 | 1007.8 |
| 20260903041505 | 34 | 302 | 4.8 | 14.5 | 0.00 | 0.00 | 0.00 | 21 | 1007.8 |
| 20260903041004 | 34 | 286 | 8.0 | 14.5 | 0.00 | 0.00 | 0.00 | 20 | 1007.7 |
| 20260903040504 | 34 | 307 | 6.4 | 12.9 | 0.00 | 0.00 | 0.00 | 21 | 1007.6 |
| 20260903040008 | 34 | 298 | 8.0 | 12.9 | 0.00 | 0.00 | 0.00 | 20 | 1007.6 |
| 20260903035504 | 35 | 287 | 4.8 | 11.3 | 0.00 | 0.00 | 0.00 | 21 | 1007.5 |
| 20260903035004 | 35 | 309 | 6.4 | 11.3 | 0.00 | 0.00 | 0.00 | 20 | 1007.6 |
| 20260903034506 | 35 | 279 | 4.8 | 14.5 | 0.00 | 0.00 | 0.00 | 20 | 1007.5 |
| 20260903034004 | 35 | 261 | 8.0 | 14.5 | 0.00 | 0.00 | 0.00 | 20 | 1007.5 |
| 20260903033503 | 35 | 281 | 3.2 | 9.7 | 0.00 | 0.00 | 0.00 | 20 | 1007.4 |
| 20260903033009 | 35 | 280 | 4.8 | 11.3 | 0.00 | 0.00 | 0.00 | 20 | 1007.4 |
| 20260903032505 | 35 | 263 | 3.2 | 11.3 | 0.00 | 0.00 | 0.00 | 20 | 1007.4 |
| 20260903032002 | 35 | 292 | 3.2 | 9.7 | 0.00 | 0.00 | 0.00 | 21 | 1007.3 |
| 20260903031504 | 35 | 296 | 3.2 | 8.0 | 0.00 | 0.00 | 0.00 | 21 | 1007.3 |
| 20260903031002 | 35 | 335 | 3.2 | 8.0 | 0.00 | 0.00 | 0.00 | 22 | 1007.2 |
| 20260903030501 | 35 | 243 | 3.2 | 6.4 | 0.00 | 0.00 | 0.00 | 23 | 1007.1 |
| 20260903030002 | 35 | 278 | 1.6 | 6.4 | 0.00 | 0.00 | 0.00 | 24 | 1007.1 |
| 20260903025501 | 35 | 253 | 1.6 | 9.7 | 0.00 | 0.00 | 0.00 | 25 | 1007.0 |
| 20260903025003 | 35 | 250 | 1.6 | 9.7 | 0.00 | 0.00 | 0.00 | 25 | 1006.9 |
| 20260903024502 | 35 | 254 | 1.6 | 9.7 | 0.00 | 0.00 | 0.00 | 26 | 1006.9 |
| 20260903024001 | 35 | 290 | 1.6 | 9.7 | 0.00 | 0.00 | 0.00 | 27 | 1006.7 |
| 20260903023503 | 35 | 229 | 1.6 | 11.3 | 0.00 | 0.00 | 0.00 | 27 | 1006.7 |
| 20260903023108 | 35 | 286 | 3.2 | 11.3 | 0.00 | 0.00 | 0.00 | 27 | 1006.7 |
| 20260903022600 | 35 | 260 | 4.8 | 11.3 | 0.00 | 0.00 | 0.00 | 27 | 1006.6 |
| 20260903022102 | 35 | 227 | 3.2 | 16.1 | 0.00 | 0.00 | 0.00 | 27 | 1006.5 |
| 20260903021608 | 35 | 207 | 6.4 | 16.1 | 0.00 | 0.00 | 0.00 | 26 | 1006.5 |
| 20260903021100 | 35 | 234 | 6.4 | 12.9 | 0.00 | 0.00 | 0.00 | 26 | 1006.6 |
| 20260903020559 | 35 | 255 | 4.8 | 11.3 | 0.00 | 0.00 | 0.00 | 26 | 1006.5 |
| 20260903020104 | 36 | 269 | 3.2 | 12.9 | 0.00 | 0.00 | 0.00 | 25 | 1006.5 |
| 20260903015602 | 36 | 277 | 6.4 | 14.5 | 0.00 | 0.00 | 0.00 | 24 | 1006.5 |
| 20260903015501 | 36 | 295 | 4.8 | 14.5 | 0.00 | 0.00 | 0.00 | 24 | 1006.5 |
| 20260903015059 | 36 | 270 | 1.6 | 14.5 | 0.00 | 0.00 | 0.00 | 24 | 1006.4 |
| 20260903014607 | 36 | 302 | 8.0 | 14.5 | 0.00 | 0.00 | 0.00 | 24 | 1006.5 |
| 20260903014058 | 36 | 282 | 8.0 | 14.5 | 0.00 | 0.00 | 0.00 | 24 | 1006.5 |
| 20260903013559 | 36 | 297 | 4.8 | 11.3 | 0.00 | 0.00 | 0.00 | 24 | 1006.4 |
| 20260903013101 | 36 | 338 | 6.4 | 11.3 | 0.00 | 0.00 | 0.00 | 23 | 1006.4 |
| 20260903012558 | 36 | 268 | 6.4 | 11.3 | 0.00 | 0.00 | 0.00 | 23 | 1006.4 |
| 20260903012057 | 36 | 300 | 3.2 | 12.9 | 0.00 | 0.00 | 0.00 | 25 | 1006.4 |
| 20260903011558 | 37 | 251 | 4.8 | 8.0 | 0.00 | 0.00 | 0.00 | 25 | 1006.4 |
| 20260903011100 | 37 | 285 | 0.0 | 9.7 | 0.00 | 0.00 | 0.00 | 26 | 1006.4 |
| 20260903010556 | 37 | 223 | 4.8 | 14.5 | 0.00 | 0.00 | 0.00 | 25 | 1006.3 |
| 20260903010057 | 37 | 246 | 3.2 | 14.5 | 0.00 | 0.00 | 0.00 | 26 | 1006.2 |
| 20260903005557 | 37 | 298 | 4.8 | 14.5 | 0.00 | 0.00 | 0.00 | 26 | 1006.3 |
| 20260903005056 | 37 | 249 | 3.2 | 11.3 | 0.00 | 0.00 | 0.00 | 26 | 1006.3 |
| 20260903004555 | 37 | 227 | 4.8 | 12.9 | 0.00 | 0.00 | 0.00 | 26 | 1006.3 |
| 20260903004055 | 37 | 263 | 4.8 | 19.3 | 0.00 | 0.00 | 0.00 | 26 | 1006.4 |
| 20260903003555 | 37 | 267 | 4.8 | 19.3 | 0.00 | 0.00 | 0.00 | 26 | 1006.4 |
| 20260903003054 | 37 | 241 | 6.4 | 12.9 | 0.00 | 0.00 | 0.00 | 25 | 1006.4 |
| 20260903002555 | 37 | 291 | 4.8 | 17.7 | 0.00 | 0.00 | 0.00 | 25 | 1006.5 |
| 20260903002054 | 37 | 275 | 8.0 | 17.7 | 0.00 | 0.00 | 0.00 | 25 | 1006.5 |
| 20260903001554 | 37 | 296 | 6.4 | 16.1 | 0.00 | 0.00 | 0.00 | 25 | 1006.4 |
| 20260903001055 | 37 | 259 | 6.4 | 16.1 | 0.00 | 0.00 | 0.00 | 25 | 1006.5 |
| 20260903000553 | 37 | 250 | 8.0 | 16.1 | 0.00 | 0.00 | 0.00 | 25 | 1006.4 |
| 20260903000053 | 37 | 256 | 1.6 | 17.7 | 0.00 | 0.00 | 0.00 | 24 | 1006.4 |
| 20260902235553 | 37 | 288 | 3.2 | 17.7 | 0.00 | 0.00 | 0.00 | 24 | 1006.5 |
| 20260902235052 | 37 | 291 | 8.0 | 17.7 | 0.00 | 0.00 | 0.00 | 24 | 1006.5 |
| 20260902234607 | 37 | 307 | 9.7 | 17.7 | 0.00 | 0.00 | 0.00 | 24 | 1006.6 |
| 20260902234053 | 38 | 271 | 6.4 | 20.9 | 0.00 | 0.00 | 0.00 | 24 | 1006.6 |
| 20260902233551 | 38 | 300 | 6.4 | 20.9 | 0.00 | 0.00 | 0.00 | 24 | 1006.7 |
| 20260902233052 | 38 | 292 | 3.2 | 17.7 | 0.00 | 0.00 | 0.00 | 23 | 1006.7 |
| 20260902232554 | 38 | 270 | 6.4 | 12.9 | 0.00 | 0.00 | 0.00 | 23 | 1006.8 |
| 20260902232049 | 38 | 253 | 4.8 | 11.3 | 0.00 | 0.00 | 0.00 | 24 | 1006.8 |
| 20260902231604 | 38 | 180 | 3.2 | 12.9 | 0.00 | 0.00 | 0.00 | 24 | 1007.0 |
| 20260902231048 | 38 | 188 | 4.8 | 16.1 | 0.00 | 0.00 | 0.00 | 24 | 1007.0 |
| 20260902230547 | 38 | 179 | 4.8 | 16.1 | 0.00 | 0.00 | 0.00 | 24 | 1007.0 |
| 20260902230052 | 38 | 157 | 4.8 | 16.1 | 0.00 | 0.00 | 0.00 | 24 | 1007.1 |
| 20260902225548 | 38 | 273 | 6.4 | 17.7 | 0.00 | 0.00 | 0.00 | 25 | 1007.1 |
| 20260902225048 | 38 | 230 | 8.0 | 17.7 | 0.00 | 0.00 | 0.00 | 24 | 1007.3 |